When you browse on this site, cookies collect data to enhance your experience and personalize the content and advertising you see.
Visit our Privacy Policy to learn more. By continuing to use the site, you agree to this use of cookies and data.
  • In Latvia
  • List of Countries
  • For 7 days
  • Water Temperature
  • Weather Map
  • Weather Widgets
  • user-avatar
    Login

    Hourly Weather Ischgl

    Today, 9 December, Monday

    Time Temperature Precipitation Wind Pressure Humidity
    00:00 -8°C° 0 mm 2 mps 566 mmHg 65%
    01:00 -7°C° 0 mm 2 mps 566 mmHg 61%
    02:00 -7°C° 0.1 mm 2 mps 565 mmHg 64%
    03:00 -6°C° 0.1 mm 1 mps 565 mmHg 68%
    04:00 -6°C° 0.1 mm 1 mps 565 mmHg 72%
    05:00 -7°C° 0.4 mm 1 mps 564 mmHg 77%
    06:00 -7°C° 0.4 mm 1 mps 564 mmHg 82%
    07:00 -9°C° 0 mm 2 mps 563 mmHg 84%
    08:00 -9°C° 0.2 mm 2 mps 564 mmHg 86%
    09:00 -7°C° 0.2 mm 1 mps 564 mmHg 87%
    10:00 -6°C° 0.2 mm 1 mps 564 mmHg 89%
    11:00 -4°C° 0.1 mm 1 mps 564 mmHg 86%
    12:00 -4°C° 0.1 mm 1 mps 564 mmHg 83%
    13:00 -5°C° 0 mm 2 mps 564 mmHg 82%
    14:00 -6°C° 0.1 mm 2 mps 563 mmHg 81%
    15:00 -6°C° 0.1 mm 1 mps 563 mmHg 80%
    16:00 -7°C° 0.1 mm 1 mps 562 mmHg 78%
    17:00 -8°C° 0.2 mm 1 mps 562 mmHg 82%
    18:00 -9°C° 0.2 mm 2 mps 563 mmHg 85%
    19:00 -10°C° 0.2 mm 2 mps 563 mmHg 88%
    20:00 -10°C° 1.1 mm 2 mps 564 mmHg 90%
    21:00 -10°C° 1.1 mm 2 mps 564 mmHg 93%
    22:00 -8°C° 1.1 mm 1 mps 565 mmHg 95%
    23:00 -9°C° 0.7 mm 1 mps 565 mmHg 96%

    Tomorrow, 10 December, Tuesday

    Time Temperature Precipitation Wind Pressure Humidity
    00:00 -9°C° 0.7 mm 1 mps 566 mmHg 96%
    01:00 -9°C° 0.7 mm 1 mps 566 mmHg 96%
    02:00 -10°C° 1 mm 2 mps 567 mmHg 96%
    03:00 -10°C° 1 mm 2 mps 568 mmHg 96%
    04:00 -10°C° 1 mm 2 mps 568 mmHg 96%
    05:00 -12°C° 0.8 mm 3 mps 569 mmHg 96%
    06:00 -12°C° 0.8 mm 3 mps 569 mmHg 96%
    07:00 -13°C° 0.8 mm 3 mps 570 mmHg 96%
    08:00 -13°C° 0.2 mm 3 mps 570 mmHg 96%
    09:00 -13°C° 0.2 mm 3 mps 571 mmHg 95%
    10:00 -14°C° 0.2 mm 3 mps 571 mmHg 95%
    11:00 -12°C° 0 mm 2 mps 571 mmHg 90%
    12:00 -12°C° 0 mm 2 mps 571 mmHg 84%
    13:00 -12°C° 0 mm 2 mps 571 mmHg 78%
    14:00 -13°C° 0 mm 2 mps 570 mmHg 76%
    15:00 -13°C° 0 mm 1 mps 569 mmHg 74%
    16:00 -14°C° 0 mm 1 mps 568 mmHg 71%
    17:00 -14°C° 0 mm 1 mps 568 mmHg 57%
    18:00 -15°C° 0 mm 1 mps 568 mmHg 43%
    19:00 -17°C° 0 mm 2 mps 568 mmHg 29%
    20:00 -16°C° 0 mm 2 mps 568 mmHg 27%
    21:00 -15°C° 0 mm 2 mps 569 mmHg 24%
    22:00 -14°C° 0 mm 2 mps 569 mmHg 21%
    23:00 -14°C° 0 mm 2 mps 569 mmHg 21%

    Day after tomorrow, 11 December, Wednesday

    Time Temperature Precipitation Wind Pressure Humidity
    00:00 -13°C° 0 mm 2 mps 569 mmHg 21%
    01:00 -12°C° 0 mm 2 mps 569 mmHg 21%
    02:00 -10°C° 0 mm 1 mps 569 mmHg 21%
    03:00 -9°C° 0 mm 1 mps 568 mmHg 21%
    04:00 -9°C° 0 mm 1 mps 568 mmHg 22%
    05:00 -9°C° 0 mm 1 mps 568 mmHg 22%
    06:00 -8°C° 0 mm 1 mps 568 mmHg 22%
    07:00 -8°C° 0 mm 1 mps 568 mmHg 23%
    08:00 -7°C° 0 mm 1 mps 568 mmHg 28%
    09:00 -4°C° 0 mm 1 mps 569 mmHg 34%
    10:00 -3°C° 0 mm 1 mps 569 mmHg 40%
    11:00 -2°C° 0 mm 1 mps 569 mmHg 48%
    12:00 -2°C° 0 mm 0 mps 569 mmHg 56%
    13:00 -1°C° 0 mm 0 mps 569 mmHg 65%
    14:00 -2°C° 0 mm 0 mps 568 mmHg 61%
    15:00 -4°C° 0 mm 0 mps 566 mmHg 57%
    16:00 -5°C° 0 mm 0 mps 565 mmHg 53%
    17:00 -6°C° 0 mm 1 mps 565 mmHg 57%
    18:00 -7°C° 0 mm 1 mps 564 mmHg 60%
    19:00 -8°C° 0 mm 1 mps 564 mmHg 63%
    20:00 -8°C° 0.1 mm 1 mps 564 mmHg 69%
    21:00 -8°C° 0.1 mm 1 mps 564 mmHg 75%
    22:00 -8°C° 0.1 mm 1 mps 563 mmHg 81%
    23:00 -8°C° 0.5 mm 1 mps 563 mmHg 83%

    12 December, Thursday

    Time Temperature Precipitation Wind Pressure Humidity
    00:00 -9°C° 0.5 mm 1 mps 563 mmHg 86%
    01:00 -10°C° 0.5 mm 2 mps 562 mmHg 88%
    02:00 -10°C° 1 mm 2 mps 562 mmHg 90%
    03:00 -10°C° 1 mm 2 mps 561 mmHg 93%
    04:00 -12°C° 1 mm 2 mps 561 mmHg 95%
    05:00 -12°C° 0.7 mm 2 mps 561 mmHg 95%
    06:00 -12°C° 0.7 mm 2 mps 561 mmHg 95%
    07:00 -13°C° 0.7 mm 2 mps 561 mmHg 95%
    08:00 -12°C° 0.5 mm 2 mps 561 mmHg 95%
    09:00 -12°C° 0.5 mm 2 mps 562 mmHg 94%
    10:00 -12°C° 0.5 mm 2 mps 562 mmHg 94%
    11:00 -10°C° 0.4 mm 2 mps 562 mmHg 92%
    12:00 -10°C° 0.4 mm 2 mps 562 mmHg 91%
    13:00 -10°C° 0.4 mm 2 mps 562 mmHg 90%
    14:00 -12°C° 0.1 mm 2 mps 561 mmHg 91%
    15:00 -11°C° 0.1 mm 1 mps 561 mmHg 93%
    16:00 -13°C° 0.1 mm 1 mps 560 mmHg 95%
    17:00 -14°C° 0 mm 1 mps 559 mmHg 93%
    18:00 -15°C° 0 mm 1 mps 558 mmHg 90%
    19:00 -17°C° 0 mm 1 mps 557 mmHg 88%
    20:00 -19°C° 0 mm 2 mps 557 mmHg 82%
    21:00 -21°C° 0 mm 3 mps 556 mmHg 75%
    22:00 -21°C° 0 mm 3 mps 556 mmHg 69%
    23:00 -19°C° 0 mm 3 mps 555 mmHg 68%

    13 December, Friday

    Time Temperature Precipitation Wind Pressure Humidity
    00:00 -19°C° 0 mm 4 mps 555 mmHg 67%
    01:00 -18°C° 0 mm 4 mps 555 mmHg 67%
    02:00 -17°C° 0.2 mm 4 mps 554 mmHg 73%
    03:00 -18°C° 0.2 mm 5 mps 554 mmHg 79%
    04:00 -17°C° 0.2 mm 5 mps 553 mmHg 85%
    05:00 -18°C° 0.1 mm 5 mps 553 mmHg 86%
    06:00 -18°C° 0.1 mm 5 mps 552 mmHg 87%
    07:00 -18°C° 0.1 mm 5 mps 551 mmHg 87%
    08:00 -17°C° 0.4 mm 4 mps 551 mmHg 88%
    09:00 -16°C° 0.4 mm 4 mps 551 mmHg 88%
    10:00 -14°C° 0.4 mm 3 mps 552 mmHg 89%
    11:00 -13°C° 0.7 mm 3 mps 552 mmHg 89%
    12:00 -10°C° 0.7 mm 2 mps 552 mmHg 88%
    13:00 -9°C° 0.7 mm 2 mps 553 mmHg 88%
    14:00 -10°C° 0.2 mm 2 mps 552 mmHg 88%
    15:00 -10°C° 0.2 mm 1 mps 552 mmHg 88%
    16:00 -11°C° 0.2 mm 1 mps 551 mmHg 88%
    17:00 -12°C° 0 mm 1 mps 551 mmHg 86%
    18:00 -15°C° 0 mm 2 mps 551 mmHg 85%
    19:00 -16°C° 0 mm 2 mps 551 mmHg 84%
    20:00 -16°C° 0.1 mm 2 mps 551 mmHg 86%
    21:00 -16°C° 0.1 mm 2 mps 552 mmHg 87%
    22:00 -16°C° 0.1 mm 2 mps 552 mmHg 89%
    23:00 -16°C° 0 mm 2 mps 552 mmHg 87%

    14 December, Saturday

    Time Temperature Precipitation Wind Pressure Humidity
    00:00 -17°C° 0 mm 2 mps 552 mmHg 85%
    01:00 -17°C° 0 mm 2 mps 552 mmHg 83%
    02:00 -17°C° 0 mm 2 mps 552 mmHg 78%
    03:00 -17°C° 0 mm 2 mps 552 mmHg 72%
    04:00 -18°C° 0 mm 3 mps 553 mmHg 67%
    05:00 -17°C° 0.4 mm 3 mps 554 mmHg 76%
    06:00 -16°C° 0.4 mm 3 mps 555 mmHg 85%
    07:00 -15°C° 0.4 mm 3 mps 556 mmHg 94%
    08:00 -13°C° 0.7 mm 3 mps 556 mmHg 94%
    09:00 -12°C° 0.7 mm 3 mps 557 mmHg 93%
    10:00 -10°C° 0.7 mm 3 mps 558 mmHg 93%
    11:00 -9°C° 1.1 mm 3 mps 559 mmHg 94%
    12:00 -8°C° 1.1 mm 3 mps 560 mmHg 94%
    13:00 -5°C° 1.1 mm 2 mps 560 mmHg 95%
    14:00 -6°C° 0.8 mm 2 mps 560 mmHg 94%
    15:00 -6°C° 0.8 mm 2 mps 560 mmHg 92%
    16:00 -7°C° 0.8 mm 2 mps 560 mmHg 90%
    17:00 -6°C° 0.3 mm 2 mps 561 mmHg 91%
    18:00 -6°C° 0.3 mm 2 mps 562 mmHg 93%
    19:00 -6°C° 0.3 mm 2 mps 562 mmHg 94%
    20:00 -6°C° 1 mm 2 mps 563 mmHg 94%
    21:00 -6°C° 1 mm 2 mps 564 mmHg 94%
    22:00 -6°C° 1 mm 2 mps 564 mmHg 93%
    23:00 -7°C° 0.3 mm 2 mps 564 mmHg 91%
    Show more